Find Qianfan Xingzuo 02-06

NORAD ID: 61557 Int'l Des: 2024-185 Owner: YUANX Country: CN Constellation: spacesail operational
LEOCIRCULARPOLAR

現在のビュー

3D地球を読み込み中...

About Qianfan Xingzuo 02-06

Qianfan Xingzuo 02-06 (NORAD 61557) is a spacesail constellation satellite launched Oct 15, 2024 by YUANX of CN. It operates in LEO, CIRCULAR, POLAR orbit with a mass of 267.00 kg.

Qianfan Xingzuo 02-06について

説明を読み込み中...

次回通過

Passes for default location (London). Set your location on the main map for personalized predictions.

高度履歴

Loading altitude history...

軌道要素

1 61557U 24185F 26195.16720359 .00000332 00000-0 13829-3 0 9994
2 61557 88.9788 52.2541 0008323 335.9139 24.1663 14.24097443100395
Epoch: Jul 14, 2026 • Age: 11 hours

現在のステータス

高度 824.8 km
遠地点 / 近地点 N/A
速度 7.44 km/s
衛星直下点 -24.97°S, 73.83°E
打ち上げ日 Oct 15, 2024
運用期間 1.7 years
タイプ internet

技術仕様

分類 Payload
質量 267.00 kg
乾燥質量 267.00 kg
総質量 267.00 kg
長さ 0.30 m
直径 3.00 m
スパン 10.00 m
形状 Box+pan
製造者 GESIH/SECM
バスタイプ Qianfan
フェーズステータス In Orbit
所有者/国 YUANX/CN

Most Searched